GALAXY 31 (G-31)

Last updated on Wed Dec 17 2025 00:02:54 GMT+0000 (Coordinated Universal Time)

1 54243U 22153A 25350.24719928 .00000000 00000+0 00000+0 0 9996 2 54243 0.0151 15.2372 0001482 264.9435 132.9453 1.00271589 5291
UTC large
Height (km)
Speed (km/s)
/
Latitude / Longitude
Inclination (degrees)
Orbital Period (minutes)
Azimuth
Elevation
Range (km)
Doppler Factor

Next 0 passes for location: London (51.5072 / 0.1276)

Sorry there are no passes over London.